User: anonymous   Login
Location: Unspecified
(0.0000°N, 0.0000°E)
Time: 19:56:27
(UTC+00:00)
Language:

PW SAT - Orbit

View from above orbital plane
View from above orbital plane
View from above satellite
View from above satellite

Ground track
Ground track

The orbit data is extracted from the following two-line orbital elements,

1 38083U 12006G   14301.11956501  .22610689  46455-5  46708-3 0  7616
2 38083 069.4009 319.6607 0016614 123.6531 236.4095 16.45428332144559
Epoch (UTC): 28 October 2014 02:52:10
Eccentricity: 0.0016614
inclination: 69.4009°
perigee height: 140 km
apogee height: 162 km
right ascension of ascending node: 319.6607°
argument of perigee: 123.6531°
revolutions per day: 16.45428332
mean anomaly at epoch: 236.4095°
orbit number at epoch: 14455

The dashed part of the orbit path shows where the satellite is in the earth's shadow,  

DLR